Location: Ponderosa Basin
(37.4660°N, 119.7357°W)
Time: 03:11:38
(UTC+00:00)

Cosmos 773 Rocket - Pass Details

Date: 03 August 2024
Orbit: 742 x 775 km, 74.1° (Epoch: 13 September)

Event Time Altitude Azimuth Distance (km) Brightness Sun altitude
Exits shadow 12:31:27 - 207° (SSW) 2,946 6.5 -6.9°
Reaches altitude 10° 12:33:14 10° 210° (SSW) 2,256 5.9 -6.6°
Maximum altitude 12:38:17 61° 290° (WNW) 855 4.1 -5.7°
Drops below altitude 10° 12:43:25 10° 11° (N) 2,290 7.0 -4.8°
Sets 12:45:51 0° 15° (NNE) 3,225 7.9 -4.4°
